Location: �perlecques
(50.8057°N, 2.1521°E)
Time: 07:04:20
(UTC+00:00)

Vanguard 1 Rocket - Pass Details

Date: 03 August 2021
Orbit: 650 x 4226 km, 34.3° (Epoch: 22 September)

Event Time Altitude Azimuth Distance (km) Brightness Sun altitude
Rises 14:14:11 0° 267° (W) 6,186 12.2 46.9°
Reaches altitude 10° 14:20:28 10° 253° (WSW) 4,410 11.8 46.1°
Maximum altitude 14:27:02 18° 216° (SW) 2,986 11.2 45.3°
Drops below altitude 10° 14:31:43 10° 176° (S) 2,974 10.5 44.7°
Sets 14:34:50 0° 156° (SSE) 3,567 10.5 44.2°
